When you browse on this site, cookies collect data to enhance your experience and personalize the content and advertising you see.
Visit our Privacy Policy to learn more. By continuing to use the site, you agree to this use of cookies and data.
  • En España
  • Lista de países
  • Para 7 días
  • Temperatura del agua
  • Mapa Satelital
  • El tiempo en el mapa
  • Informadores
  • user-avatar
    Iniciar sesión

    Tiempo cada hora Innsbruck

    Hoy, 21 Abril, Domingo

    Tiempo Temperatura Precipitaciones Viento Presión Humedad
    00:00 -1°C° 0 mm 2 mps 599 mmHg 56%
    01:00 -1°C° 0 mm 2 mps 599 mmHg 56%
    02:00 -2°C° 0 mm 2 mps 599 mmHg 57%
    03:00 -2°C° 0 mm 2 mps 598 mmHg 59%
    04:00 -2°C° 0 mm 2 mps 598 mmHg 61%
    05:00 -1°C° 0 mm 2 mps 598 mmHg 58%
    06:00 +1°C° 0 mm 2 mps 598 mmHg 56%
    07:00 +2°C° 0 mm 2 mps 599 mmHg 54%
    08:00 +5°C° 0 mm 2 mps 599 mmHg 45%
    09:00 +8°C° 0 mm 2 mps 600 mmHg 36%
    10:00 +11°C° 0 mm 1 mps 601 mmHg 27%
    11:00 +12°C° 0 mm 1 mps 601 mmHg 25%
    12:00 +13°C° 0 mm 1 mps 601 mmHg 24%
    13:00 +14°C° 0 mm 2 mps 601 mmHg 22%
    14:00 +14°C° 0 mm 2 mps 601 mmHg 23%
    15:00 +13°C° 0 mm 2 mps 600 mmHg 24%
    16:00 +13°C° 0 mm 2 mps 600 mmHg 26%
    17:00 +10°C° 0 mm 2 mps 598 mmHg 33%
    18:00 +7°C° 0 mm 2 mps 597 mmHg 41%
    19:00 +4°C° 0 mm 2 mps 596 mmHg 49%
    20:00 +3°C° 0 mm 2 mps 596 mmHg 52%
    21:00 +1°C° 0 mm 3 mps 595 mmHg 54%
    22:00 0°C° 0 mm 3 mps 595 mmHg 57%
    23:00 -1°C° 0 mm 3 mps 595 mmHg 61%

    Mañana, 22 Abril, Lunes

    Tiempo Temperatura Precipitaciones Viento Presión Humedad
    00:00 -1°C° 0 mm 3 mps 594 mmHg 66%
    01:00 -1°C° 0 mm 3 mps 594 mmHg 71%
    02:00 -1°C° 0 mm 3 mps 594 mmHg 74%
    03:00 -1°C° 0 mm 3 mps 594 mmHg 78%
    04:00 -1°C° 0 mm 3 mps 593 mmHg 81%
    05:00 0°C° 0 mm 3 mps 593 mmHg 77%
    06:00 +1°C° 0 mm 3 mps 593 mmHg 73%
    07:00 +2°C° 0 mm 3 mps 594 mmHg 69%
    08:00 +4°C° 0 mm 3 mps 594 mmHg 57%
    09:00 +8°C° 0 mm 2 mps 595 mmHg 46%
    10:00 +10°C° 0 mm 2 mps 595 mmHg 34%
    11:00 +12°C° 0 mm 2 mps 595 mmHg 32%
    12:00 +13°C° 0 mm 2 mps 595 mmHg 29%
    13:00 +13°C° 0 mm 3 mps 595 mmHg 27%
    14:00 +13°C° 0 mm 3 mps 594 mmHg 29%
    15:00 +13°C° 0 mm 3 mps 594 mmHg 30%
    16:00 +12°C° 0 mm 3 mps 593 mmHg 32%
    17:00 +10°C° 0 mm 3 mps 592 mmHg 41%
    18:00 +8°C° 0 mm 2 mps 591 mmHg 50%
    19:00 +5°C° 0 mm 2 mps 589 mmHg 59%
    20:00 +3°C° 0 mm 3 mps 589 mmHg 65%
    21:00 +2°C° 0 mm 3 mps 589 mmHg 71%
    22:00 +1°C° 0 mm 3 mps 588 mmHg 76%
    23:00 +1°C° 0 mm 3 mps 588 mmHg 77%

    Pasado mañana, 23 Abril, Martes

    Tiempo Temperatura Precipitaciones Viento Presión Humedad
    00:00 0°C° 0 mm 4 mps 588 mmHg 78%
    01:00 0°C° 0 mm 4 mps 587 mmHg 79%
    02:00 0°C° 0 mm 4 mps 587 mmHg 78%
    03:00 +1°C° 0 mm 3 mps 586 mmHg 76%
    04:00 +1°C° 0 mm 3 mps 586 mmHg 74%
    05:00 +1°C° 0 mm 3 mps 586 mmHg 73%
    06:00 +2°C° 0 mm 3 mps 586 mmHg 72%
    07:00 +2°C° 0 mm 3 mps 586 mmHg 71%
    08:00 +4°C° 0 mm 3 mps 587 mmHg 65%
    09:00 +7°C° 0 mm 3 mps 588 mmHg 59%
    10:00 +8°C° 0 mm 3 mps 588 mmHg 53%
    11:00 +9°C° 0 mm 3 mps 588 mmHg 51%
    12:00 +10°C° 0 mm 3 mps 589 mmHg 48%
    13:00 +11°C° 0 mm 3 mps 589 mmHg 46%
    14:00 +11°C° 0 mm 3 mps 589 mmHg 48%
    15:00 +11°C° 0 mm 3 mps 589 mmHg 49%
    16:00 +10°C° 0 mm 3 mps 589 mmHg 51%
    17:00 +9°C° 0.1 mm 3 mps 588 mmHg 59%
    18:00 +7°C° 0.1 mm 3 mps 587 mmHg 67%
    19:00 +4°C° 0.1 mm 3 mps 587 mmHg 75%
    20:00 +3°C° 0 mm 3 mps 587 mmHg 77%
    21:00 +2°C° 0 mm 3 mps 587 mmHg 80%
    22:00 +1°C° 0 mm 4 mps 587 mmHg 83%
    23:00 +2°C° 0 mm 3 mps 587 mmHg 83%

    24 Abril, Miércoles

    Tiempo Temperatura Precipitaciones Viento Presión Humedad
    00:00 +1°C° 0 mm 3 mps 588 mmHg 84%
    01:00 +1°C° 0 mm 3 mps 588 mmHg 85%
    02:00 +1°C° 0 mm 3 mps 588 mmHg 85%
    03:00 +1°C° 0 mm 3 mps 589 mmHg 85%
    04:00 +1°C° 0 mm 3 mps 589 mmHg 84%
    05:00 +2°C° 0 mm 3 mps 590 mmHg 81%
    06:00 +2°C° 0 mm 3 mps 590 mmHg 78%
    07:00 +3°C° 0 mm 3 mps 591 mmHg 75%
    08:00 +4°C° 0 mm 3 mps 592 mmHg 69%
    09:00 +6°C° 0 mm 4 mps 593 mmHg 64%
    10:00 +7°C° 0 mm 4 mps 594 mmHg 58%
    11:00 +8°C° 0 mm 4 mps 594 mmHg 56%
    12:00 +8°C° 0 mm 4 mps 594 mmHg 54%
    13:00 +10°C° 0 mm 4 mps 595 mmHg 52%
    14:00 +10°C° 0 mm 4 mps 594 mmHg 54%
    15:00 +8°C° 0 mm 4 mps 594 mmHg 55%
    16:00 +8°C° 0 mm 4 mps 593 mmHg 56%
    17:00 +7°C° 0 mm 4 mps 593 mmHg 62%
    18:00 +6°C° 0 mm 4 mps 593 mmHg 67%
    19:00 +5°C° 0 mm 4 mps 593 mmHg 72%
    20:00 +4°C° 0 mm 4 mps 593 mmHg 76%
    21:00 +3°C° 0 mm 4 mps 593 mmHg 80%
    22:00 +1°C° 0 mm 4 mps 594 mmHg 84%
    23:00 +2°C° 0 mm 3 mps 594 mmHg 85%

    25 Abril, Jueves

    Tiempo Temperatura Precipitaciones Viento Presión Humedad
    00:00 +2°C° 0 mm 3 mps 594 mmHg 85%
    01:00 +3°C° 0 mm 2 mps 595 mmHg 86%
    02:00 +2°C° 0 mm 2 mps 595 mmHg 87%
    03:00 +2°C° 0 mm 2 mps 595 mmHg 88%
    04:00 +1°C° 0 mm 3 mps 595 mmHg 89%
    05:00 +2°C° 0 mm 3 mps 595 mmHg 85%
    06:00 +2°C° 0 mm 3 mps 595 mmHg 81%
    07:00 +3°C° 0 mm 3 mps 595 mmHg 78%
    08:00 +5°C° 0 mm 4 mps 596 mmHg 70%
    09:00 +6°C° 0 mm 4 mps 596 mmHg 62%
    10:00 +8°C° 0 mm 4 mps 597 mmHg 54%
    11:00 +10°C° 0 mm 4 mps 597 mmHg 52%
    12:00 +10°C° 0 mm 4 mps 597 mmHg 49%
    13:00 +11°C° 0 mm 4 mps 597 mmHg 47%
    14:00 +11°C° 0 mm 4 mps 597 mmHg 48%
    15:00 +11°C° 0 mm 4 mps 597 mmHg 49%
    16:00 +11°C° 0 mm 4 mps 596 mmHg 50%
    17:00 +8°C° 0 mm 4 mps 596 mmHg 57%
    18:00 +7°C° 0 mm 4 mps 595 mmHg 65%
    19:00 +5°C° 0 mm 3 mps 594 mmHg 72%
    20:00 +5°C° 0 mm 3 mps 594 mmHg 75%
    21:00 +4°C° 0 mm 3 mps 594 mmHg 79%
    22:00 +3°C° 0 mm 3 mps 594 mmHg 82%
    23:00 +3°C° 0.1 mm 3 mps 594 mmHg 84%

    26 Abril, Viernes

    Tiempo Temperatura Precipitaciones Viento Presión Humedad
    00:00 +3°C° 0.1 mm 3 mps 594 mmHg 85%
    01:00 +2°C° 0.1 mm 3 mps 594 mmHg 86%
    02:00 +3°C° 0.1 mm 2 mps 594 mmHg 88%
    03:00 +3°C° 0.1 mm 2 mps 595 mmHg 89%
    04:00 +4°C° 0.1 mm 1 mps 595 mmHg 91%
    05:00 +3°C° 0.4 mm 2 mps 595 mmHg 91%
    06:00 +3°C° 0.4 mm 2 mps 595 mmHg 91%
    07:00 +2°C° 0.4 mm 2 mps 596 mmHg 91%
    08:00 +2°C° 1.6 mm 2 mps 596 mmHg 92%
    09:00 +1°C° 1.6 mm 2 mps 596 mmHg 92%
    10:00 -1°C° 1.6 mm 3 mps 596 mmHg 92%
    11:00 -2°C° 1.4 mm 3 mps 596 mmHg 91%
    12:00 -2°C° 1.4 mm 2 mps 595 mmHg 89%
    13:00 -3°C° 1.4 mm 2 mps 595 mmHg 87%
    14:00 -2°C° 0.3 mm 2 mps 596 mmHg 84%
    15:00 -1°C° 0.3 mm 2 mps 596 mmHg 82%
    16:00 -1°C° 0.3 mm 2 mps 597 mmHg 79%
    17:00 -2°C° 0 mm 2 mps 597 mmHg 83%
    18:00 -2°C° 0 mm 2 mps 597 mmHg 86%
    19:00 -1°C° 0 mm 1 mps 596 mmHg 90%
    20:00 -2°C° 0 mm 1 mps 596 mmHg 90%
    21:00 -3°C° 0 mm 1 mps 596 mmHg 91%
    22:00 -4°C° 0 mm 1 mps 596 mmHg 92%
    23:00 -4°C° 0 mm 1 mps 596 mmHg 89%
    Mostrar más